Helicity
20 -22 -43 -58 -33 -53 -70 -111 -146 -162 -93 -50 -16 21 92 51 144 19 33 115 257 191 183 267 179 149 84 112 85 119 175 297
68 54 7 -58 -74 -38 -60 -92 -110 -168 -176 -84 -41 7 93 139 55 125 -15 109 201 221 185 276 301 115 159 110 94 83 200 349
136 106 72 -19 -103 -105 -77 -80 -75 -116 -142 -98 -106 -36 -9 94 142 129 56 47 161 223 242 271 301 204 211 119 99 97 158 537
132 123 97 38 -43 -112 -126 -84 -70 -59 -77 -92 -58 -58 -30 55 153 155 222 89 37 176 245 286 344 241 132 194 27 84 125 146
155 142 136 129 24 -65 -128 -109 -73 -74 -52 -53 -35 -38 -7 46 130 176 167 96 81 42 200 255 315 272 196 147 303 95 124 114
214 174 129 120 67 -33 -83 -88 -79 -69 -58 -31 -24 10 6 64 100 129 176 128 133 75 55 346 254 298 207 172 257 242 97 139
193 177 141 73 77 50 -16 -59 -67 -56 -57 -23 -3 12 39 69 134 138 151 190 212 286 88 130 328 335 282 199 207 187 134 117
201 153 88 111 97 72 11 -30 -52 -61 -51 -27 3 11 8 41 102 145 156 186 238 275 141 163 287 331 247 322 200 199 209 92
190 145 134 107 94 70 20 -21 -40 -30 -29 -17 7 17 -4 7 49 90 124 136 198 271 186 159 159 212 231 212 226 220 167 162
177 140 106 94 66 37 39 -6 -22 -20 -13 -31 -2 28 18 -3 29 35 107 134 144 228 251 140 159 182 249 244 206 177 209 148
160 121 82 74 43 26 47 1 -9 -12 -15 -35 -13 31 21 0 -6 47 80 146 166 174 192 172 165 200 246 234 165 245 247 197
159 104 87 72 49 42 24 32 27 -9 -24 -31 0 42 31 6 -14 30 55 123 158 155 127 119 179 190 241 270 190 220 269 220
177 122 104 89 81 71 70 64 7 -26 -25 -21 14 34 25 2 -8 24 54 102 122 63 92 109 140 178 214 271 284 301 219 207
162 104 88 84 75 107 167 123 78 39 4 5 22 29 23 10 3 9 54 82 19 56 86 118 162 204 209 211 167 249 248 225
145 112 90 85 95 143 143 113 105 66 39 29 14 26 16 2 3 10 51 23 13 41 62 104 132 173 239 249 215 228 217 230
150 153 121 86 115 129 101 77 56 38 26 20 11 21 -12 -14 -3 4 21 39 19 30 76 110 123 136 200 226 194 172 190 227
142 169 166 124 111 118 82 47 26 21 15 13 8 -10 -13 -17 -16 2 -6 -19 -2 31 64 103 139 127 238 216 164 112 140 196
121 153 167 169 124 104 75 50 32 20 12 10 4 -8 2 -9 -23 -8 8 -4 2 3 34 68 114 129 236 186 119 80 104 143
115 138 158 179 179 128 69 39 32 34 28 15 3 -7 2 29 5 -13 -9 -17 -15 -14 8 30 62 114 229 176 124 75 97 134
Wind_Speed
45 54 58 61 64 66 67 66 64 63 62 60 58 57 56 54 53 52 52 51 53 53 52 52 50 56 54 54 41 36 28 29
34 42 55 61 64 67 68 68 66 63 63 62 60 60 58 56 53 54 51 50 51 52 50 47 47 56 55 62 57 55 48 33
30 34 45 58 64 67 69 70 68 63 61 60 58 60 57 55 55 53 50 49 51 50 50 50 51 53 53 53 46 48 41 31
26 27 35 53 63 66 68 69 67 64 61 60 59 57 56 57 56 54 53 50 53 48 48 49 51 48 53 49 53 44 28 24
23 23 29 37 56 63 66 66 66 63 61 60 58 58 58 58 60 58 54 54 56 47 48 47 48 48 44 47 55 35 32 28
21 20 26 38 46 62 66 65 64 61 59 59 58 58 57 58 58 59 57 56 54 49 48 50 49 47 50 49 43 44 30 32
20 22 26 31 43 54 64 64 62 59 58 59 58 58 59 58 59 59 59 58 57 52 54 49 50 51 47 41 46 43 45 33
24 23 20 30 42 54 61 62 62 59 57 57 59 57 57 57 58 59 59 58 56 56 55 54 50 51 48 50 45 41 40 39
26 24 23 23 31 49 57 61 61 57 56 57 59 56 55 55 56 57 58 56 56 56 55 54 51 50 50 44 45 39 42 41
29 25 22 19 23 29 55 60 60 55 56 57 57 55 53 53 54 55 56 55 54 54 53 51 51 49 49 50 50 47 43 40
34 27 24 19 20 18 34 59 55 55 56 55 54 52 51 51 52 54 55 54 53 52 50 50 49 51 50 47 52 51 49 44
38 33 25 22 21 21 16 32 52 53 54 51 49 49 49 48 50 52 51 52 52 51 48 48 50 51 50 48 51 51 51 47
38 36 29 26 25 23 24 20 10 36 44 44 45 46 47 46 47 47 48 50 49 44 47 48 48 49 51 49 50 50 49 53
38 36 32 29 26 26 29 25 15 8 18 31 39 43 44 43 42 43 44 44 38 41 45 47 47 47 50 51 52 48 49 48
36 34 32 31 30 31 30 23 14 13 11 12 32 41 41 42 41 39 40 36 36 40 43 45 46 47 49 50 50 52 52 47
36 32 30 28 29 32 32 26 20 19 13 8 12 30 41 40 38 36 32 32 36 40 42 43 44 45 48 50 50 48 47 49
36 32 31 27 26 27 29 29 27 21 18 12 10 13 33 39 39 36 33 33 35 38 41 43 45 45 49 48 47 46 46 48
34 32 29 29 27 26 25 25 27 25 19 15 14 16 14 24 39 37 36 34 37 40 42 43 44 46 50 49 46 45 45 45
31 31 30 31 29 26 24 22 22 22 25 21 17 21 21 28 10 40 40 39 40 41 41 42 42 45 49 48 46 44 43 43
Wind_Direction
356 334 325 325 324 320 316 314 311 309 306 303 299 297 291 293 284 294 294 294 288 285 279 273 270 264 258 260 251 250 239 224
8 356 333 322 322 316 316 313 310 308 306 302 298 294 290 286 288 286 293 294 292 287 285 283 278 262 263 256 256 255 254 208
6 1 350 330 320 317 314 312 309 304 305 301 295 291 288 283 283 278 289 291 295 288 286 282 280 271 270 263 267 258 258 221
5 5 359 341 326 317 315 312 309 303 301 300 296 292 288 282 282 285 282 290 291 290 290 285 278 277 263 264 252 252 243 227
5 6 2 357 336 324 318 314 313 305 298 299 296 291 286 282 278 279 277 276 281 286 291 285 279 275 283 272 257 242 239 234
6 4 2 359 352 330 321 317 312 310 301 295 295 290 286 283 279 278 279 277 282 281 292 283 279 277 272 267 267 251 242 241
7 9 8 4 354 343 326 319 312 308 305 297 294 292 286 284 280 277 279 279 279 277 276 288 280 276 275 273 260 247 242 242
8 9 6 5 358 347 333 322 314 308 303 298 295 292 288 283 281 277 278 278 278 273 273 276 281 276 271 267 268 265 260 250
7 10 13 15 10 353 338 324 314 311 305 301 299 291 289 284 282 280 276 276 276 275 270 272 277 277 272 283 268 274 267 260
13 16 18 22 17 12 342 323 314 312 309 303 298 294 289 286 285 283 278 276 275 275 270 272 275 278 276 273 267 273 273 274
22 25 27 32 28 28 17 328 319 312 309 306 299 293 293 289 287 285 281 276 275 274 272 272 277 276 278 280 274 271 269 272
29 33 42 46 43 46 45 28 319 309 309 304 299 297 299 293 291 287 283 278 276 275 276 277 277 279 279 280 278 276 269 271
34 38 45 49 54 56 63 79 184 279 292 295 298 299 300 296 297 291 285 280 277 277 278 280 282 281 277 278 279 274 276 271
35 41 49 55 59 68 75 90 105 182 253 283 299 305 305 303 300 298 290 286 280 284 283 281 282 283 279 273 272 275 276 275
38 45 52 59 65 75 81 93 103 125 154 236 304 317 315 311 307 304 297 291 291 288 287 285 283 285 284 281 278 277 276 280
41 46 53 61 73 76 82 86 95 116 139 175 242 293 321 321 317 311 307 302 296 295 291 289 288 287 287 283 280 280 280 278
42 48 54 64 79 83 86 79 92 109 117 127 140 248 305 327 327 316 311 304 305 303 298 293 291 289 291 289 286 281 283 281
44 47 55 65 78 90 91 88 86 88 102 111 118 114 131 288 331 328 318 309 309 307 303 299 294 292 294 290 289 285 282 285
47 51 59 68 76 89 93 93 92 89 82 90 105 95 101 97 162 334 327 321 314 307 308 304 299 297 298 293 288 286 284 285